Orbcomm C6

operational
NORAD ID: 25480 Int'l Des: 1998-053 Owner: ORBC Country: US Constellation: orbcomm
LEOCIRCULAR

About Orbcomm C6

Description loading...

Live Position

Loading 3D Globe...

Upcoming Passes

Altitude History

Altitude vs Time

uPlot chart will show altitude changes over time

Two-Line Element Set

1 25480U 98053F 26062.10966490 .00000989 00000-0 37202-3 0 9998
2 25480 45.0061 117.4394 0005049 140.3853 219.7365 14.37804075434900
Epoch: Mar 3, 2026 • Age: 27 hours

Current Status

Altitude 775.6 km
Velocity 7.47 km/s
Sub-Earth Point -34.44°S, 127.88°E
Launch Date Sep 23, 1998
Age 27.4 years
Type other

Technical Details

Classification Payload
Mass 42.00 kg
Dry Mass 42.00 kg
Total Mass 42.00 kg
Length 0.20 m
Diameter 1.00 m
Span 4.30 m
Shape Cyl + 2 Pan + Ant
Manufacturer OSCG
Bus Type Microstar
Phase Status Unknown Transfer Status
Owner/State ORBC/US

Large Constellations

Loading constellations...